Time,TemperatureF,DewpointF,PressureIn,WindDirection,WindDirectionDegrees,WindSpeedMPH,WindSpeedGustMPH,Humidity,HourlyPrecipIn,Conditions,Clouds,dailyrainin,SoftwareType,DateUTC
2013-10-03 00:01:00,56.4,33.0,30.02,WSW,257,0.0,1.0,41,0.00,,CLR,0.01,VWS V14.01,2013-10-03 04:01:00,
2013-10-03 00:06:00,56.6,32.6,30.02,WSW,257,0.0,2.0,40,0.00,,CLR,0.01,VWS V14.01,2013-10-03 04:06:00,
2013-10-03 00:12:00,56.3,32.3,30.01,WSW,257,0.0,0.0,40,0.00,,CLR,0.00,VWS V14.01,2013-10-03 04:12:00,
2013-10-03 00:17:00,56.3,32.3,30.01,WSW,256,0.0,0.0,40,0.00,,CLR,0.00,VWS V14.01,2013-10-03 04:17:00,
2013-10-03 00:22:00,56.2,32.2,30.01,WSW,256,0.0,0.0,40,0.00,,CLR,0.00,VWS V14.01,2013-10-03 04:22:00,
2013-10-03 00:27:00,55.8,32.5,30.01,WSW,257,0.0,0.0,41,0.00,,CLR,0.00,VWS V14.01,2013-10-03 04:27:00,
2013-10-03 00:32:00,56.6,32.6,30.01,WSW,257,0.0,0.0,40,0.00,,BKN038,0.00,VWS V14.01,2013-10-03 04:32:00,
2013-10-03 00:37:00,56.4,32.4,30.01,WSW,256,1.0,2.0,40,0.00,,BKN038,0.00,VWS V14.01,2013-10-03 04:37:00,
2013-10-03 00:42:00,56.0,32.0,30.01,WSW,257,0.0,0.0,40,0.00,,BKN038,0.00,VWS V14.01,2013-10-03 04:42:00,
2013-10-03 00:47:00,56.0,32.0,30.01,WSW,257,0.0,1.0,40,0.00,,BKN038,0.00,VWS V14.01,2013-10-03 04:47:00,
2013-10-03 00:52:00,54.6,31.4,30.01,WSW,257,0.0,0.0,41,0.00,,BKN038,0.00,VWS V14.01,2013-10-03 04:52:00,
2013-10-03 00:57:00,54.7,31.5,30.02,WSW,256,0.0,0.0,41,0.00,,BKN038,0.00,VWS V14.01,2013-10-03 04:57:00,
2013-10-03 01:02:00,55.6,31.7,30.02,WSW,257,0.0,2.0,40,0.00,,BKN038,0.00,VWS V14.01,2013-10-03 05:02:00,
2013-10-03 01:07:00,55.3,31.4,30.02,WSW,257,0.0,2.0,40,0.00,,BKN038,0.00,VWS V14.01,2013-10-03 05:07:00,
2013-10-03 01:12:00,54.6,30.8,30.02,WSW,257,0.0,0.0,40,0.00,,BKN038,0.00,VWS V14.01,2013-10-03 05:12:00,
2013-10-03 01:17:00,54.4,31.2,30.02,WSW,257,0.0,0.0,41,0.00,,BKN038,0.00,VWS V14.01,2013-10-03 05:17:00,
2013-10-03 01:22:00,54.3,31.1,30.02,WSW,257,0.0,0.0,41,0.00,,BKN038,0.00,VWS V14.01,2013-10-03 05:22:00,
2013-10-03 01:27:00,54.7,30.9,30.02,WSW,257,0.0,0.0,40,0.00,,BKN038,0.00,VWS V14.01,2013-10-03 05:27:00,
2013-10-03 01:32:00,54.6,30.8,30.02,WSW,256,0.0,0.0,40,0.00,,FEW028,0.00,VWS V14.01,2013-10-03 05:32:00,
2013-10-03 01:37:00,54.5,30.7,30.02,WSW,257,0.0,0.0,40,0.00,,FEW028,0.00,VWS V14.01,2013-10-03 05:37:00,
2013-10-03 01:42:00,54.5,30.7,30.02,WSW,257,0.0,0.0,40,0.00,,FEW028,0.00,VWS V14.01,2013-10-03 05:42:00,
2013-10-03 01:47:00,54.8,31.0,30.02,WSW,256,0.0,0.0,40,0.00,,FEW028,0.00,VWS V14.01,2013-10-03 05:47:00,
2013-10-03 01:52:00,54.9,31.0,30.02,WSW,257,0.0,0.0,40,0.00,,FEW028,0.00,VWS V14.01,2013-10-03 05:52:00,
2013-10-03 01:57:00,55.3,31.4,30.02,WSW,257,0.0,0.0,40,0.00,,FEW028,0.00,VWS V14.01,2013-10-03 05:57:00,
2013-10-03 02:02:00,54.9,31.0,30.02,WSW,257,0.0,1.0,40,0.00,,FEW028,0.00,VWS V14.01,2013-10-03 06:02:00,
2013-10-03 02:07:00,54.3,30.5,30.02,WSW,256,0.0,1.0,40,0.00,,FEW028,0.00,VWS V14.01,2013-10-03 06:07:00,
2013-10-03 02:12:00,54.6,30.8,30.02,WSW,257,1.0,2.0,40,0.00,,FEW028,0.00,VWS V14.01,2013-10-03 06:12:00,
2013-10-03 02:17:00,54.6,30.8,30.02,WSW,256,0.0,2.0,40,0.00,,FEW028,0.00,VWS V14.01,2013-10-03 06:17:00,
2013-10-03 02:22:00,53.9,30.1,30.02,WSW,257,0.0,1.0,40,0.00,,FEW028,0.00,VWS V14.01,2013-10-03 06:22:00,
2013-10-03 02:27:00,53.0,30.0,30.02,WSW,257,0.0,1.0,41,0.00,,FEW028,0.00,VWS V14.01,2013-10-03 06:27:00,
2013-10-03 02:32:00,52.6,29.6,30.02,WSW,257,0.0,1.0,41,0.00,,CLR,0.00,VWS V14.01,2013-10-03 06:32:00,
2013-10-03 02:37:00,52.4,29.4,30.02,WSW,256,2.0,2.0,41,0.00,,CLR,0.00,VWS V14.01,2013-10-03 06:37:00,
2013-10-03 02:42:00,55.1,30.6,30.03,WSW,257,0.0,2.0,39,0.00,,CLR,0.00,VWS V14.01,2013-10-03 06:42:00,
2013-10-03 02:47:00,54.2,30.4,30.03,WSW,257,0.0,2.0,40,0.00,,CLR,0.00,VWS V14.01,2013-10-03 06:47:00,
2013-10-03 02:52:00,54.5,30.7,30.03,WSW,257,0.0,0.0,40,0.00,,CLR,0.00,VWS V14.01,2013-10-03 06:52:00,
2013-10-03 02:57:00,53.8,30.1,30.01,WSW,256,0.0,0.0,40,0.00,,CLR,0.00,VWS V14.01,2013-10-03 06:57:00,
2013-10-03 03:02:00,53.0,30.0,30.01,WSW,257,0.0,0.0,41,0.00,,CLR,0.00,VWS V14.01,2013-10-03 07:02:00,
2013-10-03 03:07:00,52.7,29.7,30.01,WSW,257,0.0,0.0,41,0.00,,CLR,0.00,VWS V14.01,2013-10-03 07:07:00,
2013-10-03 03:12:00,52.4,29.4,30.02,WSW,257,0.0,0.0,41,0.00,,CLR,0.00,VWS V14.01,2013-10-03 07:12:00,
2013-10-03 03:17:00,52.6,29.6,30.02,WSW,257,0.0,0.0,41,0.00,,CLR,0.00,VWS V14.01,2013-10-03 07:17:00,
2013-10-03 03:22:00,52.3,29.3,30.02,WSW,256,1.0,3.0,41,0.00,,CLR,0.00,VWS V14.01,2013-10-03 07:22:00,
2013-10-03 03:27:00,52.2,29.2,30.01,WSW,256,0.0,4.0,41,0.00,,CLR,0.00,VWS V14.01,2013-10-03 07:27:00,
2013-10-03 03:32:00,52.1,29.1,30.01,WSW,257,0.0,1.0,41,0.00,,CLR,0.00,VWS V14.01,2013-10-03 07:32:00,
2013-10-03 03:37:00,52.1,29.1,30.01,WSW,257,0.0,1.0,41,0.00,,CLR,0.00,VWS V14.01,2013-10-03 07:37:00,
2013-10-03 03:42:00,52.8,29.8,30.01,WSW,257,0.0,1.0,41,0.00,,CLR,0.00,VWS V14.01,2013-10-03 07:42:00,
2013-10-03 03:47:00,52.6,29.6,30.01,WSW,256,0.0,1.0,41,0.00,,CLR,0.00,VWS V14.01,2013-10-03 07:47:00,
2013-10-03 03:52:00,52.6,29.6,30.01,WSW,257,0.0,0.0,41,0.00,,CLR,0.00,VWS V14.01,2013-10-03 07:52:00,
2013-10-03 03:57:00,52.1,29.1,30.01,WSW,256,0.0,0.0,41,0.00,,CLR,0.00,VWS V14.01,2013-10-03 07:57:00,
2013-10-03 04:02:00,51.7,28.8,30.01,WSW,256,0.0,0.0,41,0.01,,CLR,0.01,VWS V14.01,2013-10-03 08:02:00,
2013-10-03 04:07:00,51.7,28.8,30.01,WSW,256,2.0,2.0,41,0.01,,CLR,0.01,VWS V14.01,2013-10-03 08:07:00,
2013-10-03 04:12:00,51.7,28.8,30.02,WSW,257,0.0,0.0,41,0.01,,CLR,0.01,VWS V14.01,2013-10-03 08:12:00,
2013-10-03 04:17:00,51.9,29.0,30.02,WSW,257,0.0,0.0,41,0.01,,CLR,0.01,VWS V14.01,2013-10-03 08:17:00,
2013-10-03 04:22:00,52.4,29.4,30.02,WSW,257,0.0,2.0,41,0.01,,CLR,0.01,VWS V14.01,2013-10-03 08:22:00,
2013-10-03 04:27:00,51.8,28.9,30.02,WSW,257,0.0,2.0,41,0.01,,CLR,0.01,VWS V14.01,2013-10-03 08:27:00,
2013-10-03 04:32:00,51.8,28.9,30.02,WSW,256,0.0,0.0,41,0.01,,,0.01,VWS V14.01,2013-10-03 08:32:00,
2013-10-03 04:37:00,52.0,29.0,30.02,WSW,257,0.0,0.0,41,0.01,,,0.01,VWS V14.01,2013-10-03 08:37:00,
2013-10-03 04:42:00,51.9,29.0,30.02,WSW,256,0.0,0.0,41,0.01,,,0.01,VWS V14.01,2013-10-03 08:42:00,
2013-10-03 04:47:00,51.7,28.8,30.02,WSW,256,0.0,0.0,41,0.01,,,0.01,VWS V14.01,2013-10-03 08:47:00,
2013-10-03 04:52:00,51.8,28.9,30.02,WSW,256,0.0,0.0,41,0.01,,,0.01,VWS V14.01,2013-10-03 08:52:00,
2013-10-03 04:57:00,51.9,29.0,30.02,WSW,257,0.0,0.0,41,0.01,,,0.01,VWS V14.01,2013-10-03 08:57:00,
2013-10-03 05:02:00,51.5,29.2,30.02,WSW,257,0.0,0.0,42,0.00,,,0.01,VWS V14.01,2013-10-03 09:02:00,
2013-10-03 05:07:00,51.3,29.0,30.02,WSW,256,0.0,0.0,42,0.00,,,0.01,VWS V14.01,2013-10-03 09:07:00,
2013-10-03 05:12:00,51.2,28.9,30.02,WSW,256,0.0,0.0,42,0.00,,,0.01,VWS V14.01,2013-10-03 09:12:00,
2013-10-03 05:17:00,51.5,29.2,30.02,WSW,256,0.0,0.0,42,0.00,,,0.01,VWS V14.01,2013-10-03 09:17:00,
2013-10-03 05:22:00,51.5,29.2,30.02,WSW,257,0.0,0.0,42,0.00,,,0.01,VWS V14.01,2013-10-03 09:22:00,
2013-10-03 05:27:00,51.5,29.2,29.98,WSW,257,0.0,0.0,42,0.00,,,0.01,VWS V14.01,2013-10-03 09:27:00,
2013-10-03 05:32:00,51.5,29.2,29.98,WSW,257,0.0,0.0,42,0.00,,,0.01,VWS V14.01,2013-10-03 09:32:00,
2013-10-03 05:37:00,51.5,29.2,29.98,WSW,257,0.0,0.0,42,0.00,,,0.01,VWS V14.01,2013-10-03 09:37:00,
2013-10-03 05:42:00,51.5,29.2,29.98,WSW,257,0.0,2.0,42,0.00,,,0.01,VWS V14.01,2013-10-03 09:42:00,
2013-10-03 05:47:00,51.5,29.2,29.98,WSW,257,0.0,2.0,42,0.00,,,0.01,VWS V14.01,2013-10-03 09:47:00,
2013-10-03 05:52:00,51.5,29.2,29.98,WSW,257,0.0,1.0,42,0.00,,,0.01,VWS V14.01,2013-10-03 09:52:00,
2013-10-03 05:57:00,51.5,29.2,29.98,WSW,257,0.0,1.0,42,0.00,,,0.01,VWS V14.01,2013-10-03 09:57:00,
2013-10-03 06:02:00,51.5,29.2,29.98,WSW,257,0.0,1.0,42,0.00,,,0.01,VWS V14.01,2013-10-03 10:02:00,
2013-10-03 06:07:00,51.5,29.2,29.98,WSW,257,0.0,1.0,42,0.00,,,0.01,VWS V14.01,2013-10-03 10:07:00,
2013-10-03 06:12:00,51.5,29.2,29.98,WSW,257,0.0,0.0,42,0.00,,,0.01,VWS V14.01,2013-10-03 10:12:00,
2013-10-03 06:17:00,51.5,29.2,29.98,WSW,257,0.0,0.0,42,0.00,,,0.01,VWS V14.01,2013-10-03 10:17:00,
2013-10-03 06:22:00,51.5,29.2,29.98,WSW,257,0.0,0.0,42,0.00,,,0.01,VWS V14.01,2013-10-03 10:22:00,
2013-10-03 06:27:00,51.5,29.2,30.01,WSW,257,0.0,0.0,42,0.00,,,0.01,VWS V14.01,2013-10-03 10:27:00,
2013-10-03 06:32:00,51.5,29.2,30.01,WSW,257,0.0,0.0,42,0.00,,,0.01,VWS V14.01,2013-10-03 10:32:00,
2013-10-03 06:37:00,51.5,29.2,30.01,WSW,257,0.0,0.0,42,0.00,,,0.01,VWS V14.01,2013-10-03 10:37:00,
2013-10-03 06:42:00,51.5,29.2,30.01,WSW,257,0.0,0.0,42,0.00,,,0.01,VWS V14.01,2013-10-03 10:42:00,
2013-10-03 06:47:00,51.5,29.2,30.01,WSW,257,2.0,2.0,42,0.00,,,0.01,VWS V14.01,2013-10-03 10:47:00,
2013-10-03 06:52:00,51.5,29.2,30.01,WSW,257,0.0,0.0,42,0.00,,,0.01,VWS V14.01,2013-10-03 10:52:00,
2013-10-03 06:57:00,51.5,29.2,30.02,WSW,257,0.0,0.0,42,0.00,,,0.01,VWS V14.01,2013-10-03 10:57:00,
2013-10-03 07:02:00,51.5,29.2,30.02,WSW,257,0.0,1.0,42,0.00,,,0.01,VWS V14.01,2013-10-03 11:02:00,
2013-10-03 07:07:00,51.5,29.2,30.02,WSW,257,0.0,1.0,42,0.00,,,0.01,VWS V14.01,2013-10-03 11:07:00,
2013-10-03 07:12:00,51.5,29.2,30.01,WSW,257,0.0,0.0,42,0.00,,,0.01,VWS V14.01,2013-10-03 11:12:00,
2013-10-03 07:17:00,51.5,29.2,30.01,WSW,257,0.0,0.0,42,0.00,,,0.01,VWS V14.01,2013-10-03 11:17:00,
2013-10-03 07:22:00,51.5,29.2,30.01,WSW,257,2.0,2.0,42,0.00,,,0.01,VWS V14.01,2013-10-03 11:22:00,
2013-10-03 07:27:00,51.5,29.2,30.03,WSW,257,0.0,2.0,42,0.00,,,0.01,VWS V14.01,2013-10-03 11:27:00,
2013-10-03 07:32:00,51.5,29.2,30.03,WSW,257,0.0,1.0,42,0.00,,,0.01,VWS V14.01,2013-10-03 11:32:00,
2013-10-03 07:37:00,51.5,29.2,30.03,WSW,257,0.0,1.0,42,0.00,,,0.01,VWS V14.01,2013-10-03 11:37:00,
2013-10-03 07:42:00,51.5,29.2,30.03,WSW,257,0.0,1.0,42,0.00,,,0.01,VWS V14.01,2013-10-03 11:42:00,
2013-10-03 07:47:00,51.5,29.2,30.03,WSW,257,0.0,1.0,42,0.00,,,0.01,VWS V14.01,2013-10-03 11:47:00,
2013-10-03 07:52:00,51.5,29.2,30.03,WSW,257,0.0,0.0,42,0.00,,,0.01,VWS V14.01,2013-10-03 11:52:00,
2013-10-03 07:57:00,51.5,29.2,30.03,WSW,257,0.0,0.0,42,0.00,,,0.01,VWS V14.01,2013-10-03 11:57:00,
2013-10-03 08:02:00,51.5,29.2,30.03,WSW,257,0.0,0.0,42,0.00,,,0.01,VWS V14.01,2013-10-03 12:02:00,
2013-10-03 08:07:00,51.5,29.2,30.03,WSW,257,0.0,0.0,42,0.00,,,0.01,VWS V14.01,2013-10-03 12:07:00,
2013-10-03 08:12:00,51.5,29.2,30.03,WSW,257,0.0,0.0,42,0.00,,,0.01,VWS V14.01,2013-10-03 12:12:00,
2013-10-03 08:17:00,51.5,29.2,30.03,WSW,257,0.0,0.0,42,0.00,,,0.01,VWS V14.01,2013-10-03 12:17:00,
2013-10-03 08:22:00,51.5,29.2,30.03,WSW,257,0.0,0.0,42,0.00,,,0.01,VWS V14.01,2013-10-03 12:22:00,
2013-10-03 08:27:00,51.5,29.2,30.05,WSW,257,0.0,1.0,42,0.00,,,0.01,VWS V14.01,2013-10-03 12:27:00,
2013-10-03 08:32:00,51.5,29.2,30.05,WSW,257,0.0,0.0,42,0.00,,,0.01,VWS V14.01,2013-10-03 12:32:00,
2013-10-03 08:37:00,51.5,29.2,30.05,WSW,257,0.0,1.0,42,0.00,,,0.01,VWS V14.01,2013-10-03 12:37:00,
2013-10-03 08:42:00,51.5,29.2,30.05,WSW,257,0.0,0.0,42,0.00,,,0.01,VWS V14.01,2013-10-03 12:42:00,
2013-10-03 08:47:00,51.5,29.2,30.05,WSW,257,0.0,1.0,42,0.00,,,0.01,VWS V14.01,2013-10-03 12:47:00,
2013-10-03 08:52:00,51.5,29.2,30.05,WSW,257,0.0,0.0,42,0.00,,,0.01,VWS V14.01,2013-10-03 12:52:00,
2013-10-03 08:57:00,51.5,29.2,30.05,WSW,257,0.0,0.0,42,0.00,,,0.01,VWS V14.01,2013-10-03 12:57:00,
2013-10-03 09:02:00,51.5,29.2,30.05,WSW,257,0.0,0.0,42,0.00,,,0.01,VWS V14.01,2013-10-03 13:02:00,
2013-10-03 09:07:00,51.5,29.2,30.05,WSW,257,0.0,0.0,42,0.00,,,0.01,VWS V14.01,2013-10-03 13:07:00,
2013-10-03 09:12:00,51.5,29.2,30.05,WSW,257,0.0,0.0,42,0.00,,,0.01,VWS V14.01,2013-10-03 13:12:00,
2013-10-03 09:17:00,51.5,29.2,30.05,WSW,257,1.0,1.0,42,0.00,,,0.01,VWS V14.01,2013-10-03 13:17:00,
2013-10-03 09:22:00,51.5,29.2,30.05,WSW,257,0.0,1.0,42,0.00,,,0.01,VWS V14.01,2013-10-03 13:22:00,
2013-10-03 09:27:00,51.5,29.2,30.05,WSW,257,0.0,1.0,42,0.00,,,0.01,VWS V14.01,2013-10-03 13:27:00,
2013-10-03 09:32:00,51.5,29.2,30.05,WSW,257,2.0,3.0,42,0.00,,,0.01,VWS V14.01,2013-10-03 13:32:00,
2013-10-03 09:37:00,51.5,29.2,30.05,WSW,257,0.0,3.0,42,0.00,,,0.01,VWS V14.01,2013-10-03 13:37:00,
2013-10-03 09:42:00,51.5,29.2,30.05,WSW,257,0.0,3.0,42,0.00,,,0.01,VWS V14.01,2013-10-03 13:42:00,
2013-10-03 09:47:00,51.5,29.2,30.05,WSW,257,1.0,3.0,42,0.00,,,0.01,VWS V14.01,2013-10-03 13:47:00,
2013-10-03 09:52:00,51.5,29.2,30.05,WSW,257,0.0,0.0,42,0.00,,,0.01,VWS V14.01,2013-10-03 13:52:00,
2013-10-03 09:57:00,51.5,29.2,30.05,WSW,257,1.0,3.0,42,0.00,,,0.01,VWS V14.01,2013-10-03 13:57:00,
2013-10-03 10:02:00,51.5,29.2,30.05,WSW,257,1.0,4.0,42,0.00,,,0.01,VWS V14.01,2013-10-03 14:02:00,
2013-10-03 10:07:00,51.5,29.2,30.05,WSW,257,0.0,4.0,42,0.00,,,0.01,VWS V14.01,2013-10-03 14:07:00,
2013-10-03 10:13:00,51.5,29.2,30.05,WSW,257,0.0,0.0,42,0.00,,,0.01,VWS V14.01,2013-10-03 14:13:00,
2013-10-03 10:18:00,51.5,29.2,30.05,WSW,257,0.0,2.0,42,0.00,,,0.01,VWS V14.01,2013-10-03 14:18:00,
2013-10-03 10:23:00,51.5,29.2,30.06,WSW,257,0.0,3.0,42,0.00,,,0.01,VWS V14.01,2013-10-03 14:23:00,
2013-10-03 10:28:00,51.5,29.2,30.06,WSW,257,1.0,3.0,42,0.00,,,0.01,VWS V14.01,2013-10-03 14:28:00,
2013-10-03 10:33:00,51.5,29.2,30.06,WSW,257,0.0,3.0,42,0.00,,SCT060,0.01,VWS V14.01,2013-10-03 14:33:00,
2013-10-03 10:38:00,51.5,29.2,30.06,WSW,257,0.0,3.0,42,0.00,,SCT060,0.01,VWS V14.01,2013-10-03 14:38:00,
2013-10-03 10:43:00,51.5,29.2,30.06,WSW,257,0.0,4.0,42,0.00,,SCT060,0.01,VWS V14.01,2013-10-03 14:43:00,
2013-10-03 10:48:00,51.5,29.2,30.06,WSW,257,2.0,4.0,42,0.00,,SCT060,0.01,VWS V14.01,2013-10-03 14:48:00,
2013-10-03 10:53:00,51.5,29.2,30.06,WSW,257,0.0,2.0,42,0.00,,SCT060,0.01,VWS V14.01,2013-10-03 14:53:00,
2013-10-03 10:58:00,51.5,29.2,30.06,WSW,257,0.0,3.0,42,0.00,,SCT060,0.01,VWS V14.01,2013-10-03 14:58:00,
2013-10-03 11:03:00,51.5,29.2,30.06,WSW,257,0.0,3.0,42,0.00,,SCT060,0.01,VWS V14.01,2013-10-03 15:03:00,
2013-10-03 11:08:00,51.5,29.2,30.06,WSW,257,0.0,3.0,42,0.00,,SCT060,0.01,VWS V14.01,2013-10-03 15:08:00,
2013-10-03 11:13:00,51.5,29.2,30.06,WSW,257,0.0,2.0,42,0.00,,SCT060,0.01,VWS V14.01,2013-10-03 15:13:00,
2013-10-03 11:18:00,51.5,29.2,30.06,SE,138,0.0,4.0,42,0.00,,SCT060,0.01,VWS V14.01,2013-10-03 15:18:00,
2013-10-03 11:23:00,51.5,29.2,30.05,SE,134,0.0,4.0,42,0.00,,SCT060,0.01,VWS V14.01,2013-10-03 15:23:00,
2013-10-03 11:28:00,51.5,29.2,30.05,West,271,0.0,4.0,42,0.00,,SCT060,0.01,VWS V14.01,2013-10-03 15:28:00,
2013-10-03 11:33:00,51.5,29.2,30.05,SSE,165,0.0,6.0,42,0.00,,BKN060,0.01,VWS V14.01,2013-10-03 15:33:00,
2013-10-03 11:38:00,51.5,29.2,30.05,SSE,163,2.0,6.0,42,0.00,,BKN060,0.01,VWS V14.01,2013-10-03 15:38:00,
2013-10-03 11:43:00,51.5,29.2,30.05,WSW,241,2.0,5.0,42,0.00,,BKN060,0.01,VWS V14.01,2013-10-03 15:43:00,
2013-10-03 11:48:00,51.5,29.2,30.05,WSW,257,5.0,5.0,42,0.00,,BKN060,0.01,VWS V14.01,2013-10-03 15:48:00,
2013-10-03 11:54:00,51.5,29.2,30.05,SSE,166,0.0,5.0,42,0.00,,BKN060,0.01,VWS V14.01,2013-10-03 15:54:00,
2013-10-03 11:59:00,51.5,29.2,30.05,SW,219,0.0,1.0,42,0.00,,BKN060,0.01,VWS V14.01,2013-10-03 15:59:00,
2013-10-03 12:04:00,51.5,29.2,30.05,SE,134,4.0,5.0,42,0.00,,BKN060,0.01,VWS V14.01,2013-10-03 16:04:00,
2013-10-03 12:09:00,51.5,29.2,30.05,SW,235,4.0,7.0,42,0.00,,BKN060,0.01,VWS V14.01,2013-10-03 16:09:00,
2013-10-03 12:14:00,51.5,29.2,30.05,South,186,1.0,9.0,42,0.00,,BKN060,0.01,VWS V14.01,2013-10-03 16:14:00,
2013-10-03 12:19:00,51.5,29.2,30.05,WSW,240,0.0,0.0,42,0.00,,BKN060,0.01,VWS V14.01,2013-10-03 16:19:00,
2013-10-03 12:24:00,51.5,29.2,30.05,SSW,197,0.0,5.0,42,0.00,,BKN060,0.01,VWS V14.01,2013-10-03 16:24:00,
2013-10-03 12:29:00,51.5,29.2,30.05,SSW,209,4.0,4.0,42,0.00,,BKN060,0.01,VWS V14.01,2013-10-03 16:29:00,
2013-10-03 12:34:00,51.5,29.2,30.05,SE,129,4.0,6.0,42,0.00,,BKN060,0.01,VWS V14.01,2013-10-03 16:34:00,
2013-10-03 12:39:00,51.5,29.2,30.05,SW,227,4.0,4.0,42,0.00,,BKN060,0.01,VWS V14.01,2013-10-03 16:39:00,
2013-10-03 12:44:00,51.5,29.2,30.05,SSW,203,1.0,5.0,42,0.00,,BKN060,0.01,VWS V14.01,2013-10-03 16:44:00,
2013-10-03 12:49:00,51.5,29.2,30.05,WSW,240,4.0,6.0,42,0.00,,BKN060,0.01,VWS V14.01,2013-10-03 16:49:00,
2013-10-03 12:54:00,51.5,29.2,30.05,WSW,250,1.0,6.0,42,0.00,,BKN060,0.01,VWS V14.01,2013-10-03 16:54:00,
2013-10-03 12:59:00,51.5,29.2,30.05,WSW,248,4.0,4.0,42,0.00,,BKN060,0.01,VWS V14.01,2013-10-03 16:59:00,
2013-10-03 13:04:00,51.5,29.2,30.05,SW,234,1.0,5.0,42,0.00,,BKN060,0.01,VWS V14.01,2013-10-03 17:04:00,
2013-10-03 13:09:00,51.5,29.2,30.04,WSW,247,3.0,7.0,42,0.00,,BKN060,0.01,VWS V14.01,2013-10-03 17:09:00,
2013-10-03 13:14:00,51.5,29.2,30.04,South,187,2.0,7.0,42,0.00,,BKN060,0.01,VWS V14.01,2013-10-03 17:14:00,
2013-10-03 13:19:00,51.5,29.2,30.04,WSW,248,3.0,4.0,42,0.00,,BKN060,0.01,VWS V14.01,2013-10-03 17:19:00,
2013-10-03 13:24:00,51.5,29.2,30.04,SSW,211,1.0,7.0,42,0.00,,BKN060,0.01,VWS V14.01,2013-10-03 17:24:00,
2013-10-03 13:29:00,51.5,29.2,30.04,SW,235,11.0,11.0,42,0.00,,BKN060,0.01,VWS V14.01,2013-10-03 17:29:00,
2013-10-03 13:34:00,51.5,29.2,30.04,West,274,4.0,11.0,42,0.00,,BKN050,0.01,VWS V14.01,2013-10-03 17:34:00,
2013-10-03 13:39:00,51.5,29.2,30.03,WSW,244,3.0,7.0,42,0.00,,BKN050,0.01,VWS V14.01,2013-10-03 17:39:00,
2013-10-03 13:44:00,51.5,29.2,30.03,SW,217,8.0,11.0,42,0.00,,BKN050,0.01,VWS V14.01,2013-10-03 17:44:00,
2013-10-03 13:49:00,51.5,29.2,30.03,WSW,246,5.0,5.0,42,0.00,,BKN050,0.01,VWS V14.01,2013-10-03 17:49:00,
2013-10-03 13:54:00,51.5,29.2,30.03,West,277,3.0,7.0,42,0.00,,BKN050,0.01,VWS V14.01,2013-10-03 17:54:00,
2013-10-03 13:59:00,51.5,29.2,30.03,SSW,209,3.0,3.0,42,0.00,,BKN050,0.01,VWS V14.01,2013-10-03 17:59:00,
2013-10-03 14:04:00,51.5,29.2,30.03,SW,232,4.0,7.0,42,0.00,,BKN050,0.01,VWS V14.01,2013-10-03 18:04:00,
2013-10-03 14:09:00,51.5,29.2,30.03,West,269,2.0,3.0,42,0.00,,BKN050,0.01,VWS V14.01,2013-10-03 18:09:00,
2013-10-03 14:14:00,51.5,29.2,30.03,SW,218,6.0,10.0,42,0.00,,BKN050,0.01,VWS V14.01,2013-10-03 18:14:00,
2013-10-03 14:19:00,51.5,29.2,30.03,South,179,0.0,5.0,42,0.00,,BKN050,0.01,VWS V14.01,2013-10-03 18:19:00,
2013-10-03 14:24:00,51.5,29.2,30.02,SW,236,4.0,7.0,42,0.00,,BKN050,0.01,VWS V14.01,2013-10-03 18:24:00,
2013-10-03 14:29:00,51.5,29.2,30.02,West,274,1.0,4.0,42,0.00,,BKN050,0.01,VWS V14.01,2013-10-03 18:29:00,
2013-10-03 14:34:00,51.5,29.2,30.02,WSW,258,0.0,6.0,42,0.00,,FEW028,0.01,VWS V14.01,2013-10-03 18:34:00,
2013-10-03 14:39:00,51.5,29.2,30.02,SW,224,3.0,5.0,42,0.00,,FEW028,0.01,VWS V14.01,2013-10-03 18:39:00,
2013-10-03 14:44:00,51.5,29.2,30.02,SSW,211,5.0,11.0,42,0.00,,FEW028,0.01,VWS V14.01,2013-10-03 18:44:00,
2013-10-03 14:49:00,51.5,29.2,30.02,WSW,239,0.0,1.0,42,0.00,,FEW028,0.01,VWS V14.01,2013-10-03 18:49:00,
2013-10-03 14:54:00,51.5,29.2,30.02,SSW,210,1.0,9.0,42,0.00,,FEW028,0.01,VWS V14.01,2013-10-03 18:54:00,
2013-10-03 14:59:00,51.5,29.2,30.02,SW,229,0.0,1.0,42,0.00,,FEW028,0.01,VWS V14.01,2013-10-03 18:59:00,
2013-10-03 15:04:00,51.5,29.2,30.02,WSW,252,4.0,5.0,42,0.00,,FEW028,0.01,VWS V14.01,2013-10-03 19:04:00,
2013-10-03 15:09:00,51.5,29.2,30.02,West,273,4.0,9.0,42,0.00,,FEW028,0.01,VWS V14.01,2013-10-03 19:09:00,
2013-10-03 15:14:00,51.5,29.2,30.02,WSW,257,8.0,12.0,42,0.00,,FEW028,0.01,VWS V14.01,2013-10-03 19:14:00,
2013-10-03 15:19:00,51.5,29.2,30.02,West,280,2.0,5.0,42,0.00,,FEW028,0.01,VWS V14.01,2013-10-03 19:19:00,
2013-10-03 15:24:00,51.5,29.2,30.02,WSW,256,6.0,7.0,42,0.00,,FEW028,0.01,VWS V14.01,2013-10-03 19:24:00,
2013-10-03 15:29:00,51.5,29.2,30.02,West,278,1.0,5.0,42,0.00,,FEW028,0.01,VWS V14.01,2013-10-03 19:29:00,
2013-10-03 15:34:00,51.5,29.2,30.02,WNW,296,2.0,9.0,42,0.00,,FEW027,0.01,VWS V14.01,2013-10-03 19:34:00,
2013-10-03 15:39:00,51.5,29.2,30.02,WNW,288,5.0,6.0,42,0.00,,FEW027,0.01,VWS V14.01,2013-10-03 19:39:00,
2013-10-03 15:44:00,51.5,42.8,30.02,WNW,284,4.0,7.0,72,0.00,,FEW027,0.01,VWS V14.01,2013-10-03 19:44:00,
2013-10-03 15:49:00,51.5,42.8,30.02,WNW,299,4.0,4.0,72,0.00,,FEW027,0.01,VWS V14.01,2013-10-03 19:49:00,
2013-10-03 15:54:00,51.5,42.8,30.02,West,281,5.0,6.0,72,0.00,,FEW027,0.01,VWS V14.01,2013-10-03 19:54:00,
2013-10-03 15:59:00,51.5,42.8,30.02,West,279,4.0,6.0,72,0.00,,FEW027,0.01,VWS V14.01,2013-10-03 19:59:00,
2013-10-03 16:04:00,51.5,42.8,30.02,WSW,237,5.0,7.0,72,0.00,,FEW027,0.01,VWS V14.01,2013-10-03 20:04:00,
2013-10-03 16:09:00,51.5,42.4,30.02,West,261,5.0,9.0,71,0.00,,FEW027,0.01,VWS V14.01,2013-10-03 20:09:00,
2013-10-03 16:14:00,51.5,42.0,30.02,NW,304,5.0,12.0,70,0.00,,FEW027,0.01,VWS V14.01,2013-10-03 20:14:00,
2013-10-03 16:19:00,51.5,42.0,30.02,WSW,246,12.0,12.0,70,0.00,,FEW027,0.01,VWS V14.01,2013-10-03 20:19:00,
2013-10-03 16:24:00,51.5,41.7,30.02,WSW,252,6.0,12.0,69,0.00,,FEW027,0.01,VWS V14.01,2013-10-03 20:24:00,
2013-10-03 16:29:00,51.5,42.0,30.02,WSW,257,8.0,10.0,70,0.00,,FEW027,0.01,VWS V14.01,2013-10-03 20:29:00,
2013-10-03 16:34:00,73.9,64.3,30.02,West,259,2.0,10.0,72,0.00,,CLR,0.01,VWS V14.01,2013-10-03 20:34:00,
2013-10-03 16:39:00,74.0,64.0,29.96,WSW,246,3.0,7.0,71,0.00,,CLR,0.01,VWS V14.01,2013-10-03 20:39:00,
2013-10-03 16:44:00,74.0,64.0,29.96,SW,214,3.0,9.0,71,0.00,,CLR,0.01,VWS V14.01,2013-10-03 20:44:00,
2013-10-03 16:49:00,73.7,63.7,29.96,WSW,254,5.0,5.0,71,0.00,,CLR,0.01,VWS V14.01,2013-10-03 20:49:00,
2013-10-03 16:54:00,73.5,63.5,29.96,WSW,254,4.0,7.0,71,0.00,,CLR,0.01,VWS V14.01,2013-10-03 20:54:00,
2013-10-03 16:59:00,73.3,63.7,29.96,WSW,244,6.0,6.0,72,0.00,,CLR,0.01,VWS V14.01,2013-10-03 20:59:00,
2013-10-03 17:04:00,73.5,63.9,29.96,SW,231,4.0,6.0,72,0.00,,CLR,0.01,VWS V14.01,2013-10-03 21:04:00,
2013-10-03 17:09:00,73.4,64.2,29.96,West,267,4.0,5.0,73,0.00,,CLR,0.01,VWS V14.01,2013-10-03 21:09:00,
2013-10-03 17:14:00,73.5,64.3,29.96,WSW,253,3.0,7.0,73,0.00,,CLR,0.01,VWS V14.01,2013-10-03 21:14:00,
2013-10-03 17:19:00,73.5,64.7,29.96,West,263,0.0,0.0,74,0.00,,CLR,0.01,VWS V14.01,2013-10-03 21:19:00,
2013-10-03 17:24:00,73.3,64.5,29.90,West,263,0.0,3.0,74,0.00,,CLR,0.01,VWS V14.01,2013-10-03 21:24:00,
2013-10-03 17:29:00,73.1,64.3,29.90,WSW,254,1.0,2.0,74,0.00,,CLR,0.01,VWS V14.01,2013-10-03 21:29:00,
2013-10-03 17:34:00,72.8,64.4,29.90,WSW,246,4.0,4.0,75,0.00,,FEW039,0.01,VWS V14.01,2013-10-03 21:34:00,
2013-10-03 17:39:00,72.4,64.0,29.92,WSW,239,1.0,2.0,75,0.00,,FEW039,0.01,VWS V14.01,2013-10-03 21:39:00,
2013-10-03 17:44:00,72.2,63.8,29.92,WSW,238,2.0,2.0,75,0.00,,FEW039,0.01,VWS V14.01,2013-10-03 21:44:00,
2013-10-03 17:49:00,72.1,64.1,29.92,WSW,244,0.0,0.0,76,0.00,,FEW039,0.01,VWS V14.01,2013-10-03 21:49:00,
2013-10-03 17:54:00,72.0,64.4,29.92,WSW,244,0.0,1.0,77,0.00,,FEW039,0.01,VWS V14.01,2013-10-03 21:54:00,
2013-10-03 18:00:00,72.2,64.6,29.92,WSW,244,0.0,1.0,77,0.00,,FEW039,0.01,VWS V14.01,2013-10-03 22:00:00,
2013-10-03 18:05:00,72.4,64.8,29.92,WSW,244,0.0,1.0,77,0.00,,FEW039,0.01,VWS V14.01,2013-10-03 22:05:00,
2013-10-03 18:10:00,72.9,65.3,29.91,WSW,244,0.0,1.0,77,0.00,,FEW039,0.01,VWS V14.01,2013-10-03 22:10:00,
2013-10-03 18:15:00,73.2,65.2,29.91,WSW,244,1.0,1.0,76,0.00,,FEW039,0.01,VWS V14.01,2013-10-03 22:15:00,
2013-10-03 18:20:00,73.1,65.1,29.91,WSW,246,1.0,1.0,76,0.00,,FEW039,0.01,VWS V14.01,2013-10-03 22:20:00,
2013-10-03 18:25:00,72.6,65.0,29.91,WSW,246,0.0,3.0,77,0.00,,FEW039,0.01,VWS V14.01,2013-10-03 22:25:00,
2013-10-03 18:30:00,72.0,64.8,29.91,WSW,246,0.0,0.0,78,0.00,,FEW039,0.01,VWS V14.01,2013-10-03 22:30:00,
2013-10-03 18:35:00,71.5,64.7,29.91,WSW,246,0.0,0.0,79,0.00,,FEW060,0.01,VWS V14.01,2013-10-03 22:35:00,
2013-10-03 18:40:00,71.0,64.2,29.92,WSW,246,0.0,0.0,79,0.00,,FEW060,0.01,VWS V14.01,2013-10-03 22:40:00,
2013-10-03 18:45:00,70.5,64.0,29.92,WSW,246,0.0,1.0,80,0.00,,FEW060,0.01,VWS V14.01,2013-10-03 22:45:00,
2013-10-03 18:50:00,70.1,63.7,29.92,WSW,246,0.0,0.0,80,0.00,,FEW060,0.01,VWS V14.01,2013-10-03 22:50:00,
2013-10-03 18:55:00,69.6,63.2,29.93,WSW,246,0.0,1.0,80,0.00,,FEW060,0.01,VWS V14.01,2013-10-03 22:55:00,
2013-10-03 19:00:00,69.3,62.9,29.93,WSW,246,0.0,0.0,80,0.00,,FEW060,0.01,VWS V14.01,2013-10-03 23:00:00,
2013-10-03 19:05:00,69.0,62.6,29.93,WSW,246,0.0,0.0,80,0.00,,FEW060,0.01,VWS V14.01,2013-10-03 23:05:00,
2013-10-03 19:10:00,68.4,61.6,29.94,WSW,246,0.0,1.0,79,0.00,,FEW060,0.01,VWS V14.01,2013-10-03 23:10:00,
2013-10-03 19:15:00,67.8,60.7,29.94,WSW,246,0.0,1.0,78,0.00,,FEW060,0.01,VWS V14.01,2013-10-03 23:15:00,
2013-10-03 19:20:00,67.5,60.0,29.94,WSW,246,0.0,2.0,77,0.00,,FEW060,0.01,VWS V14.01,2013-10-03 23:20:00,
2013-10-03 19:25:00,67.4,60.0,29.94,WSW,246,0.0,3.0,77,0.00,,FEW060,0.01,VWS V14.01,2013-10-03 23:25:00,
2013-10-03 19:30:00,67.1,59.3,29.94,WSW,246,0.0,2.0,76,0.00,,FEW060,0.01,VWS V14.01,2013-10-03 23:30:00,
2013-10-03 19:35:00,66.5,58.0,29.94,WSW,246,0.0,2.0,74,0.00,,FEW060,0.01,VWS V14.01,2013-10-03 23:35:00,
2013-10-03 19:40:00,65.9,57.0,29.95,WSW,246,0.0,1.0,73,0.00,,FEW060,0.01,VWS V14.01,2013-10-03 23:40:00,
2013-10-03 19:45:00,65.4,55.8,29.95,WSW,246,0.0,1.0,71,0.00,,FEW060,0.01,VWS V14.01,2013-10-03 23:45:00,
2013-10-03 19:50:00,65.2,54.8,29.95,WSW,246,0.0,2.0,69,0.00,,FEW060,0.01,VWS V14.01,2013-10-03 23:50:00,
2013-10-03 19:55:00,65.1,54.7,29.96,WSW,246,2.0,3.0,69,0.00,,FEW060,0.01,VWS V14.01,2013-10-03 23:55:00,
2013-10-03 20:00:00,64.8,53.6,29.96,WSW,246,1.0,2.0,67,0.00,,FEW060,0.01,VWS V14.01,2013-10-04 00:00:00,
2013-10-03 20:05:00,64.6,53.0,29.96,WSW,246,0.0,3.0,66,0.00,,FEW060,0.01,VWS V14.01,2013-10-04 00:05:00,
2013-10-03 20:10:00,64.5,52.5,29.96,WSW,246,0.0,0.0,65,0.00,,FEW060,0.01,VWS V14.01,2013-10-04 00:10:00,
2013-10-03 20:15:00,64.3,51.9,29.96,WSW,246,0.0,2.0,64,0.00,,FEW060,0.01,VWS V14.01,2013-10-04 00:15:00,
2013-10-03 20:20:00,64.3,51.5,29.96,WSW,246,0.0,0.0,63,0.00,,FEW060,0.01,VWS V14.01,2013-10-04 00:20:00,
2013-10-03 20:25:00,64.1,50.8,29.97,WSW,246,0.0,1.0,62,0.00,,FEW060,0.01,VWS V14.01,2013-10-04 00:25:00,
2013-10-03 20:30:00,64.1,50.8,29.97,WSW,246,0.0,0.0,62,0.00,,FEW060,0.01,VWS V14.01,2013-10-04 00:30:00,
2013-10-03 20:35:00,64.1,50.4,29.97,WSW,246,0.0,1.0,61,0.00,,BKN055,0.01,VWS V14.01,2013-10-04 00:35:00,
2013-10-03 20:40:00,64.1,50.4,29.98,WSW,246,1.0,3.0,61,0.00,,BKN055,0.01,VWS V14.01,2013-10-04 00:40:00,
2013-10-03 20:45:00,64.1,50.4,29.98,WSW,246,0.0,3.0,61,0.00,,BKN055,0.01,VWS V14.01,2013-10-04 00:45:00,
2013-10-03 20:50:00,64.1,50.4,29.98,WSW,246,0.0,1.0,61,0.00,,BKN055,0.01,VWS V14.01,2013-10-04 00:50:00,
2013-10-03 20:55:00,64.2,50.0,29.98,WSW,246,0.0,2.0,60,0.00,,BKN055,0.01,VWS V14.01,2013-10-04 00:55:00,
2013-10-03 21:00:00,64.1,50.0,29.98,WSW,246,0.0,2.0,60,0.00,,BKN055,0.01,VWS V14.01,2013-10-04 01:00:00,
2013-10-03 21:05:00,64.0,49.4,29.98,WSW,246,0.0,2.0,59,0.00,,BKN055,0.01,VWS V14.01,2013-10-04 01:05:00,
2013-10-03 21:10:00,63.9,48.8,29.99,WSW,246,1.0,2.0,58,0.00,,BKN055,0.01,VWS V14.01,2013-10-04 01:10:00,
2013-10-03 21:15:00,64.0,48.5,29.99,WSW,246,0.0,2.0,57,0.00,,BKN055,0.01,VWS V14.01,2013-10-04 01:15:00,
2013-10-03 21:20:00,64.1,49.0,29.99,WSW,246,0.0,1.0,58,0.00,,BKN055,0.01,VWS V14.01,2013-10-04 01:20:00,
2013-10-03 21:25:00,64.1,49.0,29.99,WSW,246,0.0,1.0,58,0.00,,BKN055,0.01,VWS V14.01,2013-10-04 01:25:00,
2013-10-03 21:30:00,64.1,49.0,29.99,WSW,246,0.0,0.0,58,0.00,,BKN055,0.01,VWS V14.01,2013-10-04 01:30:00,
2013-10-03 21:36:00,63.9,48.8,29.99,WSW,246,0.0,0.0,58,0.00,,OVC080,0.01,VWS V14.01,2013-10-04 01:36:00,
2013-10-03 21:41:00,63.8,48.8,29.99,WSW,246,0.0,1.0,58,0.00,,OVC080,0.01,VWS V14.01,2013-10-04 01:41:00,
2013-10-03 21:46:00,63.8,48.8,29.99,WSW,246,0.0,1.0,58,0.00,,OVC080,0.01,VWS V14.01,2013-10-04 01:46:00,
2013-10-03 21:51:00,63.6,48.6,29.99,WSW,246,0.0,0.0,58,0.00,,OVC080,0.01,VWS V14.01,2013-10-04 01:51:00,
2013-10-03 21:56:00,63.4,47.9,29.99,WSW,246,0.0,0.0,57,0.00,,OVC080,0.01,VWS V14.01,2013-10-04 01:56:00,
2013-10-03 22:01:00,63.3,47.8,29.99,WSW,246,0.0,0.0,57,0.00,,OVC080,0.01,VWS V14.01,2013-10-04 02:01:00,
2013-10-03 22:06:00,62.6,47.2,29.99,WSW,246,0.0,0.0,57,0.00,,OVC080,0.01,VWS V14.01,2013-10-04 02:06:00,
2013-10-03 22:11:00,62.5,46.6,30.00,WSW,246,0.0,1.0,56,0.00,,OVC080,0.01,VWS V14.01,2013-10-04 02:11:00,
2013-10-03 22:16:00,62.7,45.8,30.00,WSW,246,0.0,1.0,54,0.00,,OVC080,0.01,VWS V14.01,2013-10-04 02:16:00,
2013-10-03 22:21:00,62.5,45.2,30.00,WSW,246,0.0,0.0,53,0.00,,OVC080,0.01,VWS V14.01,2013-10-04 02:21:00,
2013-10-03 22:26:00,62.4,44.6,29.99,WSW,246,0.0,0.0,52,0.00,,OVC080,0.01,VWS V14.01,2013-10-04 02:26:00,
2013-10-03 22:31:00,62.3,44.0,29.99,WSW,246,0.0,0.0,51,0.00,,OVC080,0.01,VWS V14.01,2013-10-04 02:31:00,
2013-10-03 22:36:00,62.3,43.4,29.99,WSW,246,0.0,1.0,50,0.00,,SCT090,0.01,VWS V14.01,2013-10-04 02:36:00,
2013-10-03 22:41:00,62.2,42.8,30.00,WSW,246,0.0,1.0,49,0.00,,SCT090,0.01,VWS V14.01,2013-10-04 02:41:00,
2013-10-03 22:46:00,62.2,42.3,30.00,WSW,246,0.0,2.0,48,0.00,,SCT090,0.01,VWS V14.01,2013-10-04 02:46:00,
2013-10-03 22:51:00,62.2,42.3,30.00,WSW,246,0.0,3.0,48,0.00,,SCT090,0.01,VWS V14.01,2013-10-04 02:51:00,
2013-10-03 22:56:00,62.2,41.7,30.00,WSW,246,0.0,3.0,47,0.00,,SCT090,0.01,VWS V14.01,2013-10-04 02:56:00,
2013-10-03 23:01:00,62.2,41.7,30.00,WSW,246,0.0,1.0,47,0.00,,SCT090,0.01,VWS V14.01,2013-10-04 03:01:00,
2013-10-03 23:06:00,61.9,41.5,30.00,WSW,246,0.0,2.0,47,0.00,,SCT090,0.01,VWS V14.01,2013-10-04 03:06:00,
2013-10-03 23:11:00,61.8,41.4,30.00,WSW,246,0.0,0.0,47,0.00,,SCT090,0.01,VWS V14.01,2013-10-04 03:11:00,
2013-10-03 23:16:00,61.7,40.7,30.00,WSW,246,0.0,2.0,46,0.00,,SCT090,0.01,VWS V14.01,2013-10-04 03:16:00,
2013-10-03 23:21:00,61.4,40.5,30.00,WSW,246,0.0,0.0,46,0.00,,SCT090,0.01,VWS V14.01,2013-10-04 03:21:00,
2013-10-03 23:26:00,61.4,40.5,30.00,WSW,246,0.0,0.0,46,0.00,,SCT090,0.01,VWS V14.01,2013-10-04 03:26:00,
2013-10-03 23:31:00,61.3,39.8,30.00,WSW,246,0.0,0.0,45,0.00,,SCT090,0.01,VWS V14.01,2013-10-04 03:31:00,
2013-10-03 23:36:00,61.3,39.8,30.00,WSW,246,0.0,0.0,45,0.00,,SCT035,0.01,VWS V14.01,2013-10-04 03:36:00,
2013-10-03 23:41:00,61.2,39.1,30.00,WSW,246,0.0,0.0,44,0.00,,SCT035,0.01,VWS V14.01,2013-10-04 03:41:00,
2013-10-03 23:46:00,61.3,39.2,30.00,WSW,246,0.0,0.0,44,0.00,,SCT035,0.01,VWS V14.01,2013-10-04 03:46:00,
2013-10-03 23:51:00,61.2,39.1,30.00,WSW,246,0.0,0.0,44,0.00,,SCT035,0.01,VWS V14.01,2013-10-04 03:51:00,
2013-10-03 23:56:00,61.1,38.5,30.00,WSW,246,0.0,0.0,43,0.00,,SCT035,0.01,VWS V14.01,2013-10-04 03:56:00,